Location: *
(48.7358°N, 0.3111°E)
Time: 22:14:30
(UTC+00:00)

BREEZE-M DEB (TANK) - Pass Details

Date: 22 October 2019
Orbit: 313 x 16428 km, 49.5° (Epoch: 12 November)

Event Time Altitude Azimuth Distance (km) Brightness Sun altitude
Exits shadow 05:37:56 - 268° (W) 9,665 7.9 -9.1°
Reaches altitude 10° 05:39:29 10° 269° (W) 9,182 7.8 -8.8°
Maximum altitude 06:01:23 85° 360° (N) 1,413 4.4 -5.3°
Drops below altitude 10° 06:06:07 10° 91° (E) 2,253 7.2 -4.5°
Sets 06:07:29 0° 91° (E) 2,840 8.2 -4.3°
